583  
NZUS59 KLOT 201108  
HRRLOT  
 
CHICAGO AREA WEATHER ROUNDUP  
NATIONAL WEATHER SERVICE CHICAGO/ROMEOVILLE IL  
500 AM CST THU FEB 20 2020  
 
NOTE: "FAIR" INDICATES FEW OR NO CLOUDS BELOW 12,000 FEET WITH NO  
SIGNIFICANT WEATHER AND/OR OBSTRUCTIONS TO VISIBILITY.  
 
* THESE STATIONS ARE NOT UNDER NWS QUALITY CONTROL. THEY ALSO MAY NOT  
REPORT WEATHER SUCH AS PRECIPITATION OR FOG.  
 
ILZ005-006-012>014-019>023-201200-  
NORTHEAST ILLINOIS  
 
CITY SKY/WX TMP DP RH WIND PRES REMARKS  
OHARE N/A 11 -3 53 NW9 30.64R WCI -2  
MIDWAY N/A 14 -3 47 N10 30.64R WCI 1  
AURORA N/A 9 -3 58 N13 30.65R WCI -7  
LANSING* CLOUDY 17 -1 46 CALM 30.64R  
JOLIET* CLOUDY 16 0 49 N8 N/A WCI 6  
WAUKEGAN N/A 6 -7 54 NW8 30.63R WCI -7  
DUPAGE AIRPORT N/A 9 -4 55 N8 30.64R WCI -3  
WHEELING N/A 10 -4 53 NW9 30.65R WCI -3  
KANKAKEE* CLOUDY 19 4 51 N10 30.65R WCI 8  
MORRIS* CLOUDY 14 1 57 N7 30.65R WCI 4  
LEWIS AIRPORT* MOCLDY 13 0 54 N10 30.65R WCI 0  
NORTHERLY ISL N/A 15 1 53 NW8 N/A WCI 4  
NORTHERLY IS NOT AVBL  
NORTHERLY ISL N/A 15 1 53 NW8 N/A WCI 4  

 
 
WIZ051-052-058>065-066-070>072-201200-  
SOUTHEAST WISCONSIN  
 
CITY SKY/WX TMP DP RH WIND PRES REMARKS  
MILWAUKEE N/A 6 -7 54 NW8 30.64R WCI -7  
KENOSHA* N/A 7 -6 55 NW8 30.64R WCI -6  
RACINE* N/A 6 -7 54 NW7 30.66R WCI -6  
BURLINGTON N/A 2 -7 64 NW9 30.65R WCI -12  
WAUKESHA N/A 0 -9 65 NW10 30.65R WCI -17  
WEST BEND N/A 0 -9 65 NW5 30.63R WCI -10  

 
 
INZ001>003-010>013-019-020-201200-  
NORTHWEST INDIANA  
 
CITY SKY/WX TMP DP RH WIND PRES REMARKS  
GARY* CLOUDY 19 3 49 N17 30.64R WCI 4  
MICHIGAN CITY* NOT AVBL  
RENSSELAER* NOT AVBL  
VALPARAISO CLOUDY 20 9 62 N13G20 30.60R WCI 7  

 
 
LMZ740>746-201200-  
SOUTHERN LAKE MICHIGAN  
 
STATION/POSITION TIME SKY/WX TEMP WIND PRES VSBY  
AIR DIR/SP/G  
(UTC) (F) (DEG/KT/KT) (MB) (MI)  
HARRISON CRIB 1040 14 310/ 12/ 16 N/A  
NORTHERLY ISL 1100 15 310/ 6/ 15 N/A  
CALUMET HARBOR 1030 16 290/ 6/ 11 1036.4R  
BURNS HARBOR NOT AVBL  
MICHIGAN CITY 1040 21 340/ 17/ 19 N/A  

 
 
ABBREVIATIONS USED IN REMARKS  
TC - TEMPERATURE IN CELSIUS  
WCI - WIND CHILL INDEX  
HX - HEAT INDEX  
VSB - VISIBILITY  

 
 
 
CLICK HERE TO GO TO PREVIOUS BULLETINS.

The Nexlab IL Page
The Nexlab IN Page Main Text Page